Private Wetterstation Sandau
Wetterdaten: Woche 18.02.13 - 24.02.13 (KW8)
Datum Zeit Temp. A. Feuchte A. Luftdruck Regen Wind Richtung Taupunkt Windchill
18.02.2013 00:00 0,6 C 92 % 1025,5 hPa 0,0 l/m 2,0 km/h (1 Bft) O-SO -0,5 C 0,6 C
18.02.2013 01:00 0,5 C 91 % 1025,3 hPa 0,0 l/m 1,2 km/h (1 Bft) SO -0,7 C 0,5 C
18.02.2013 02:00 0,5 C 91 % 1024,9 hPa 0,0 l/m 1,9 km/h (1 Bft) SO -0,8 C 0,4 C
18.02.2013 03:00 0,4 C 91 % 1024,5 hPa 0,0 l/m 2,3 km/h (1 Bft) SO -0,9 C 0,4 C
18.02.2013 04:00 0,4 C 91 % 1024,2 hPa 0,0 l/m 0,8 km/h (0 Bft) SO -0,9 C 0,4 C
18.02.2013 05:00 0,3 C 91 % 1024,1 hPa 0,0 l/m 1,0 km/h (0 Bft) SO -1,0 C 0,3 C
18.02.2013 06:00 0,3 C 91 % 1023,8 hPa 0,0 l/m 0,6 km/h (0 Bft) SO -1,0 C 0,3 C
18.02.2013 07:00 0,3 C 91 % 1023,7 hPa 0,0 l/m 1,9 km/h (1 Bft) S-SO -1,0 C 0,3 C
18.02.2013 08:00 0,4 C 91 % 1023,8 hPa 0,0 l/m 1,0 km/h (0 Bft) S-SO -0,9 C 0,4 C
18.02.2013 09:00 0,7 C 91 % 1023,7 hPa 0,0 l/m 1,6 km/h (1 Bft) S-SO -0,7 C 0,7 C
18.02.2013 10:00 1,0 C 90 % 1023,5 hPa 0,0 l/m 2,0 km/h (1 Bft) S -0,5 C 1,0 C
18.02.2013 11:00 1,3 C 90 % 1023,3 hPa 0,0 l/m 1,7 km/h (1 Bft) W-SW -0,2 C 1,2 C
18.02.2013 12:00 1,4 C 89 % 1022,9 hPa 0,0 l/m 1,6 km/h (1 Bft) W-SW -0,1 C 1,4 C
18.02.2013 13:00 1,7 C 89 % 1022,5 hPa 0,0 l/m 0,9 km/h (0 Bft) W-SW 0,0 C 1,7 C
18.02.2013 14:00 2,2 C 87 % 1022,1 hPa 0,0 l/m 2,3 km/h (1 Bft) W-SW 0,2 C 2,0 C
18.02.2013 15:00 1,9 C 86 % 1021,5 hPa 0,0 l/m 2,8 km/h (1 Bft) W-SW -0,1 C 1,6 C
18.02.2013 16:00 1,8 C 86 % 1021,0 hPa 0,0 l/m 4,1 km/h (1 Bft) W-SW -0,3 C 1,1 C
18.02.2013 17:00 1,4 C 87 % 1020,7 hPa 0,0 l/m 2,7 km/h (1 Bft) SW -0,5 C 1,3 C
18.02.2013 18:00 1,3 C 88 % 1020,5 hPa 0,0 l/m 3,9 km/h (1 Bft) W-SW -0,4 C 0,6 C
18.02.2013 19:00 1,2 C 89 % 1019,9 hPa 0,0 l/m 6,6 km/h (2 Bft) W-SW -0,4 C -0,6 C
18.02.2013 20:00 1,3 C 89 % 1019,4 hPa 0,0 l/m 7,5 km/h (2 Bft) W-SW -0,3 C -0,9 C
18.02.2013 21:00 1,1 C 89 % 1018,9 hPa 0,0 l/m 7,4 km/h (2 Bft) W-SW -0,4 C -0,9 C
18.02.2013 22:00 1,0 C 89 % 1018,4 hPa 0,0 l/m 7,1 km/h (2 Bft) W-SW -0,5 C -0,7 C
18.02.2013 23:00 0,8 C 91 % 1017,7 hPa 0,0 l/m 9,0 km/h (2 Bft) W-SW -0,5 C -1,5 C
19.02.2013 00:00 0,6 C 92 % 1016,9 hPa 0,0 l/m 8,6 km/h (2 Bft) W-SW -0,5 C -2,1 C
19.02.2013 01:00 0,6 C 93 % 1016,2 hPa 0,0 l/m 7,0 km/h (2 Bft) W-SW -0,4 C -1,2 C
19.02.2013 02:00 0,5 C 93 % 1015,3 hPa 0,0 l/m 5,5 km/h (1 Bft) W -0,5 C -0,8 C
19.02.2013 03:00 0,5 C 93 % 1014,3 hPa 0,0 l/m 8,5 km/h (2 Bft) W -0,5 C -2,2 C
19.02.2013 04:00 0,5 C 93 % 1013,3 hPa 0,0 l/m 8,6 km/h (2 Bft) W-SW -0,5 C -1,8 C
19.02.2013 05:00 0,5 C 93 % 1012,5 hPa 0,0 l/m 8,4 km/h (2 Bft) W-SW -0,5 C -2,0 C
19.02.2013 06:00 0,6 C 93 % 1011,7 hPa 0,0 l/m 8,0 km/h (2 Bft) W-NW -0,4 C -1,9 C
19.02.2013 07:00 0,8 C 93 % 1011,3 hPa 0,0 l/m 11,8 km/h (2 Bft) NW -0,2 C -2,7 C
19.02.2013 08:00 0,9 C 93 % 1011,5 hPa 0,0 l/m 11,5 km/h (2 Bft) W-NW -0,1 C -2,5 C
19.02.2013 09:00 1,0 C 93 % 1011,7 hPa 0,0 l/m 8,9 km/h (2 Bft) N-NO -0,0 C -1,7 C
19.02.2013 10:00 1,3 C 92 % 1012,4 hPa 0,5 l/m 6,9 km/h (2 Bft) N 0,2 C -0,3 C
19.02.2013 11:00 1,6 C 90 % 1013,3 hPa 1,0 l/m 6,3 km/h (2 Bft) N 0,2 C -0,0 C
19.02.2013 12:00 2,0 C 86 % 1013,9 hPa 3,1 l/m 9,6 km/h (2 Bft) N-NO -0,1 C -0,7 C
19.02.2013 13:00 1,6 C 88 % 1014,3 hPa 2,1 l/m 7,4 km/h (2 Bft) N -0,2 C -0,5 C
19.02.2013 14:00 1,5 C 86 % 1014,6 hPa 1,0 l/m 9,5 km/h (2 Bft) N -0,5 C -1,3 C
19.02.2013 15:00 1,2 C 85 % 1015,2 hPa 0,5 l/m 9,1 km/h (2 Bft) N-NO -1,0 C -1,5 C
19.02.2013 16:00 0,8 C 85 % 1015,8 hPa 0,0 l/m 9,5 km/h (2 Bft) N-NO -1,4 C -1,9 C
19.02.2013 17:00 0,5 C 85 % 1016,5 hPa 0,5 l/m 9,2 km/h (2 Bft) N-NO -1,7 C -2,5 C
19.02.2013 18:00 0,3 C 85 % 1017,1 hPa 0,0 l/m 9,5 km/h (2 Bft) N-NO -1,9 C -2,7 C
19.02.2013 19:00 0,2 C 86 % 1017,7 hPa 0,0 l/m 7,8 km/h (2 Bft) N-NO -1,9 C -2,4 C
19.02.2013 20:00 0,1 C 86 % 1018,2 hPa 0,0 l/m 9,1 km/h (2 Bft) N-NO -2,0 C -2,6 C
19.02.2013 21:00 -0,0 C 87 % 1018,7 hPa 0,0 l/m 9,0 km/h (2 Bft) N-NO -2,0 C -2,9 C
19.02.2013 22:00 -0,1 C 86 % 1019,3 hPa 0,0 l/m 8,4 km/h (2 Bft) N -2,2 C -2,6 C
19.02.2013 23:00 -0,1 C 86 % 1019,7 hPa 0,0 l/m 12,7 km/h (3 Bft) N-NO -2,2 C -3,9 C
20.02.2013 00:00 -0,4 C 87 % 1020,1 hPa 0,0 l/m 11,8 km/h (2 Bft) N -2,3 C -3,9 C
20.02.2013 01:00 -0,4 C 86 % 1020,4 hPa 0,0 l/m 11,7 km/h (2 Bft) N-NO -2,4 C -3,9 C
20.02.2013 02:00 -0,2 C 84 % 1020,8 hPa 0,0 l/m 11,8 km/h (2 Bft) N-NO -2,6 C -4,0 C
20.02.2013 03:00 -0,4 C 83 % 1021,2 hPa 0,0 l/m 12,1 km/h (2 Bft) N-NO -2,9 C -4,1 C
20.02.2013 04:00 -0,5 C 81 % 1021,6 hPa 0,0 l/m 10,7 km/h (2 Bft) N-NO -3,3 C -3,9 C
20.02.2013 05:00 -0,6 C 82 % 1022,1 hPa 0,0 l/m 10,3 km/h (2 Bft) N -3,4 C -4,0 C
20.02.2013 06:00 -0,9 C 83 % 1022,2 hPa 0,0 l/m 10,8 km/h (2 Bft) N-NO -3,5 C -4,3 C
20.02.2013 07:00 -1,0 C 83 % 1022,7 hPa 0,0 l/m 9,8 km/h (2 Bft) N -3,5 C -4,3 C
20.02.2013 08:00 -1,0 C 83 % 1023,1 hPa 0,0 l/m 12,6 km/h (3 Bft) N-NO -3,5 C -5,0 C
20.02.2013 09:00 -0,6 C 83 % 1023,3 hPa 0,0 l/m 10,1 km/h (2 Bft) N-NO -3,1 C -3,7 C
20.02.2013 10:00 -0,3 C 80 % 1023,8 hPa 0,0 l/m 10,7 km/h (2 Bft) O-NO -3,4 C -3,5 C
20.02.2013 11:00 0,1 C 75 % 1024,2 hPa 0,5 l/m 12,5 km/h (3 Bft) N-NO -3,7 C -3,5 C
20.02.2013 12:00 0,5 C 73 % 1024,1 hPa 0,0 l/m 11,8 km/h (2 Bft) N-NO -3,8 C -2,9 C
20.02.2013 13:00 0,6 C 71 % 1024,2 hPa 0,0 l/m 11,3 km/h (2 Bft) NO -4,0 C -2,6 C
20.02.2013 14:00 0,7 C 69 % 1024,1 hPa 0,0 l/m 13,0 km/h (3 Bft) NO -4,3 C -3,0 C
20.02.2013 15:00 0,5 C 68 % 1024,1 hPa 0,0 l/m 11,3 km/h (2 Bft) N -4,8 C -2,8 C
20.02.2013 16:00 -0,3 C 74 % 1024,5 hPa 0,0 l/m 10,1 km/h (2 Bft) N-NO -4,4 C -3,6 C
20.02.2013 17:00 -0,9 C 80 % 1024,5 hPa 0,0 l/m 11,4 km/h (2 Bft) N-NO -3,9 C -4,6 C
20.02.2013 18:00 -1,3 C 80 % 1024,9 hPa 0,0 l/m 9,0 km/h (2 Bft) N-NO -4,3 C -4,5 C
20.02.2013 19:00 -1,7 C 85 % 1025,1 hPa 0,0 l/m 6,8 km/h (2 Bft) N -3,9 C -4,0 C
20.02.2013 20:00 -1,8 C 84 % 1025,1 hPa 0,0 l/m 6,0 km/h (2 Bft) N-NO -4,2 C -3,7 C
20.02.2013 21:00 -2,2 C 85 % 1025,3 hPa 0,0 l/m 9,1 km/h (2 Bft) N -4,4 C -5,6 C
20.02.2013 22:00 -2,2 C 87 % 1025,6 hPa 0,0 l/m 7,4 km/h (2 Bft) N-NO -4,1 C -4,9 C
20.02.2013 23:00 -2,2 C 87 % 1025,6 hPa 0,0 l/m 6,5 km/h (2 Bft) N-NO -4,0 C -4,5 C
21.02.2013 00:00 -2,1 C 87 % 1025,4 hPa 0,0 l/m 7,7 km/h (2 Bft) N-NO -4,0 C -4,8 C
21.02.2013 01:00 -2,1 C 87 % 1025,4 hPa 0,0 l/m 8,7 km/h (2 Bft) N-NO -4,0 C -5,2 C
21.02.2013 02:00 -2,1 C 87 % 1025,4 hPa 0,0 l/m 6,6 km/h (2 Bft) N-NO -4,0 C -4,6 C
21.02.2013 03:00 -2,1 C 87 % 1025,2 hPa 0,0 l/m 6,7 km/h (2 Bft) N-NO -4,0 C -4,3 C
21.02.2013 04:00 -2,1 C 89 % 1025,0 hPa 0,0 l/m 5,5 km/h (1 Bft) N-NO -3,7 C -3,8 C
21.02.2013 05:00 -2,1 C 87 % 1025,0 hPa 0,0 l/m 5,2 km/h (1 Bft) N -3,9 C -3,8 C
21.02.2013 06:00 -2,1 C 88 % 1024,7 hPa 0,0 l/m 5,1 km/h (1 Bft) N-NO -3,8 C -3,6 C
21.02.2013 07:00 -2,1 C 89 % 1024,8 hPa 0,0 l/m 4,4 km/h (1 Bft) N-NO -3,7 C -3,1 C
21.02.2013 08:00 -1,6 C 87 % 1025,2 hPa 0,0 l/m 4,8 km/h (1 Bft) NO -3,5 C -2,5 C
21.02.2013 09:00 -0,9 C 86 % 1025,1 hPa 0,0 l/m 5,4 km/h (1 Bft) N-NO -3,0 C -2,2 C
21.02.2013 10:00 -0,5 C 84 % 1025,1 hPa 0,0 l/m 5,9 km/h (2 Bft) N-NO -2,8 C -2,2 C
21.02.2013 11:00 -0,4 C 82 % 1025,1 hPa 0,0 l/m 7,2 km/h (2 Bft) SO -3,1 C -2,7 C
21.02.2013 12:00 0,5 C 84 % 1024,9 hPa 0,5 l/m 1,0 km/h (0 Bft) S-SO -2,0 C 0,5 C
21.02.2013 13:00 1,1 C 75 % 1024,2 hPa 0,0 l/m 6,4 km/h (2 Bft) NO -2,7 C -0,5 C
21.02.2013 14:00 0,0 C 77 % 1023,9 hPa 0,0 l/m 6,7 km/h (2 Bft) NO -3,5 C -2,0 C
21.02.2013 15:00 -0,1 C 76 % 1023,6 hPa 0,0 l/m 5,4 km/h (1 Bft) NO -3,8 C -1,5 C
21.02.2013 16:00 -0,6 C 76 % 1023,6 hPa 0,0 l/m 8,3 km/h (2 Bft) NO -4,3 C -3,3 C
21.02.2013 17:00 -1,1 C 77 % 1023,6 hPa 0,0 l/m 5,8 km/h (2 Bft) NO -4,7 C -2,4 C
21.02.2013 18:00 -1,1 C 73 % 1023,8 hPa 0,0 l/m 9,8 km/h (2 Bft) O-NO -5,4 C -4,4 C
21.02.2013 19:00 -1,4 C 72 % 1023,9 hPa 0,0 l/m 8,2 km/h (2 Bft) NO -5,7 C -4,2 C
21.02.2013 20:00 -1,5 C 74 % 1023,9 hPa 0,0 l/m 6,5 km/h (2 Bft) NO -5,6 C -3,6 C
21.02.2013 21:00 -1,7 C 75 % 1023,8 hPa 0,0 l/m 4,3 km/h (1 Bft) O-NO -5,6 C -2,9 C
21.02.2013 22:00 -1,8 C 77 % 1023,8 hPa 0,0 l/m 3,0 km/h (1 Bft) O-NO -5,4 C -2,3 C
21.02.2013 23:00 -2,2 C 79 % 1023,7 hPa 0,0 l/m 3,8 km/h (1 Bft) O-NO -5,3 C -3,0 C
22.02.2013 00:00 -3,1 C 81 % 1023,6 hPa 0,0 l/m 3,2 km/h (1 Bft) NO -5,9 C -3,4 C
22.02.2013 01:00 -3,5 C 83 % 1023,3 hPa 0,0 l/m 2,6 km/h (1 Bft) NO -6,0 C -3,9 C
22.02.2013 02:00 -3,1 C 86 % 1023,1 hPa 0,0 l/m 3,9 km/h (1 Bft) NO -5,2 C -4,2 C
22.02.2013 03:00 -3,1 C 85 % 1022,5 hPa 0,0 l/m 4,3 km/h (1 Bft) O-NO -5,3 C -4,0 C
22.02.2013 04:00 -3,1 C 81 % 1022,2 hPa 0,0 l/m 6,3 km/h (2 Bft) O-NO -5,9 C -5,3 C
22.02.2013 05:00 -3,3 C 81 % 1022,2 hPa 0,0 l/m 7,2 km/h (2 Bft) NO -6,1 C -5,8 C
22.02.2013 06:00 -3,4 C 81 % 1022,0 hPa 0,0 l/m 6,6 km/h (2 Bft) O-NO -6,2 C -6,0 C
22.02.2013 07:00 -3,4 C 81 % 1022,1 hPa 0,0 l/m 4,6 km/h (1 Bft) O-NO -6,2 C -4,4 C
22.02.2013 08:00 -3,2 C 81 % 1022,1 hPa 0,0 l/m 7,6 km/h (2 Bft) O-NO -6,0 C -6,2 C
22.02.2013 09:00 -2,8 C 81 % 1022,0 hPa 0,0 l/m 8,0 km/h (2 Bft) NO -5,7 C -5,8 C
22.02.2013 10:00 -1,8 C 77 % 1021,9 hPa 0,0 l/m 7,8 km/h (2 Bft) O-NO -5,3 C -4,4 C
22.02.2013 11:00 -0,9 C 72 % 1021,6 hPa 0,5 l/m 11,3 km/h (2 Bft) NO -5,4 C -4,6 C
22.02.2013 12:00 -0,9 C 69 % 1021,3 hPa 0,0 l/m 9,7 km/h (2 Bft) O -5,9 C -4,0 C
22.02.2013 13:00 -1,0 C 68 % 1020,8 hPa 0,0 l/m 9,4 km/h (2 Bft) NO -6,1 C -3,8 C
22.02.2013 14:00 -1,0 C 67 % 1020,6 hPa 0,0 l/m 11,0 km/h (2 Bft) O-SO -6,4 C -4,7 C
22.02.2013 15:00 -1,2 C 71 % 1020,3 hPa 0,0 l/m 9,8 km/h (2 Bft) O-NO -5,7 C -4,4 C
22.02.2013 16:00 -1,8 C 76 % 1020,1 hPa 0,0 l/m 7,5 km/h (2 Bft) O-NO -5,5 C -4,4 C
22.02.2013 17:00 -2,6 C 78 % 1020,0 hPa 0,0 l/m 5,4 km/h (1 Bft) O-SO -5,9 C -4,2 C
22.02.2013 18:00 -3,4 C 79 % 1020,4 hPa 0,0 l/m 4,6 km/h (1 Bft) O-NO -6,5 C -4,7 C
22.02.2013 19:00 -3,8 C 79 % 1020,7 hPa 0,0 l/m 5,6 km/h (1 Bft) NO -6,9 C -5,6 C
22.02.2013 20:00 -4,1 C 79 % 1020,6 hPa 0,0 l/m 5,0 km/h (1 Bft) NO -7,2 C -5,4 C
22.02.2013 21:00 -4,4 C 81 % 1020,3 hPa 0,0 l/m 6,9 km/h (2 Bft) O-NO -7,2 C -7,1 C
22.02.2013 22:00 -4,3 C 82 % 1020,2 hPa 0,0 l/m 7,0 km/h (2 Bft) NO -6,9 C -7,0 C
22.02.2013 23:00 -4,5 C 82 % 1019,8 hPa 0,0 l/m 6,5 km/h (2 Bft) NO -7,1 C -7,3 C
23.02.2013 00:00 -4,2 C 82 % 1019,6 hPa 0,0 l/m 5,4 km/h (1 Bft) NO -6,7 C -5,8 C
23.02.2013 01:00 -4,1 C 82 % 1019,4 hPa 0,0 l/m 7,5 km/h (2 Bft) NO -6,7 C -6,9 C
23.02.2013 02:00 -4,3 C 82 % 1019,1 hPa 0,0 l/m 11,0 km/h (2 Bft) O-NO -6,9 C -8,4 C
23.02.2013 03:00 -4,4 C 82 % 1018,7 hPa 0,0 l/m 9,3 km/h (2 Bft) O-NO -7,0 C -8,2 C
23.02.2013 04:00 -4,2 C 81 % 1018,4 hPa 0,0 l/m 10,9 km/h (2 Bft) O-NO -6,9 C -8,3 C
23.02.2013 05:00 -4,2 C 81 % 1018,3 hPa 0,0 l/m 11,1 km/h (2 Bft) O-NO -7,0 C -8,4 C
23.02.2013 06:00 -4,1 C 81 % 1018,4 hPa 0,0 l/m 8,4 km/h (2 Bft) O-NO -6,9 C -7,0 C
23.02.2013 07:00 -4,0 C 81 % 1018,7 hPa 0,0 l/m 8,4 km/h (2 Bft) NO -6,7 C -7,3 C
23.02.2013 08:00 -3,8 C 82 % 1018,3 hPa 0,0 l/m 11,8 km/h (2 Bft) NO -6,4 C -8,1 C
23.02.2013 09:00 -3,2 C 81 % 1017,8 hPa 0,0 l/m 12,1 km/h (2 Bft) O-NO -6,0 C -7,4 C
23.02.2013 10:00 -2,6 C 80 % 1017,7 hPa 0,0 l/m 13,4 km/h (3 Bft) NO -5,5 C -6,7 C
23.02.2013 11:00 -2,2 C 80 % 1017,3 hPa 0,0 l/m 10,0 km/h (2 Bft) NO -5,2 C -5,7 C
23.02.2013 12:00 -1,4 C 79 % 1016,7 hPa 0,0 l/m 10,9 km/h (2 Bft) O-NO -4,5 C -4,7 C
23.02.2013 13:00 -0,9 C 80 % 1016,3 hPa 0,0 l/m 10,4 km/h (2 Bft) NO -3,9 C -4,3 C
23.02.2013 14:00 -0,6 C 82 % 1015,9 hPa 0,0 l/m 12,5 km/h (3 Bft) NO -3,2 C -4,2 C
23.02.2013 15:00 -0,3 C 82 % 1015,6 hPa 0,0 l/m 9,6 km/h (2 Bft) NO -3,0 C -3,2 C
23.02.2013 16:00 -0,1 C 83 % 1015,6 hPa 0,0 l/m 12,8 km/h (3 Bft) NO -2,6 C -3,8 C
23.02.2013 17:00 0,1 C 84 % 1015,1 hPa 0,0 l/m 12,2 km/h (2 Bft) O-NO -2,3 C -3,7 C
23.02.2013 18:00 0,2 C 83 % 1015,0 hPa 0,0 l/m 11,2 km/h (2 Bft) NO -2,4 C -3,1 C
23.02.2013 19:00 0,0 C 84 % 1015,3 hPa 0,0 l/m 9,5 km/h (2 Bft) O-NO -2,4 C -3,0 C
23.02.2013 20:00 -0,4 C 88 % 1015,4 hPa 0,0 l/m 6,6 km/h (2 Bft) O-NO -2,1 C -2,5 C
23.02.2013 21:00 -0,6 C 89 % 1015,4 hPa 0,0 l/m 6,5 km/h (2 Bft) NO -2,2 C -2,4 C
23.02.2013 22:00 -0,7 C 90 % 1015,5 hPa 0,0 l/m 7,6 km/h (2 Bft) NO -2,2 C -2,8 C
23.02.2013 23:00 -0,8 C 90 % 1015,6 hPa 0,0 l/m 7,1 km/h (2 Bft) NO -2,2 C -3,1 C
24.02.2013 00:00 -0,9 C 91 % 1015,5 hPa 0,0 l/m 5,0 km/h (1 Bft) O-NO -2,1 C -1,9 C
24.02.2013 01:00 -0,7 C 91 % 1015,2 hPa 0,0 l/m 7,1 km/h (2 Bft) O-NO -2,0 C -2,9 C
24.02.2013 02:00 -0,6 C 91 % 1014,9 hPa 0,0 l/m 7,2 km/h (2 Bft) O-NO -1,8 C -2,8 C
24.02.2013 03:00 -0,3 C 90 % 1015,0 hPa 0,0 l/m 5,8 km/h (2 Bft) O-NO -1,7 C -1,9 C
24.02.2013 04:00 -0,2 C 91 % 1014,9 hPa 0,0 l/m 7,6 km/h (2 Bft) O-NO -1,5 C -2,7 C
24.02.2013 05:00 -0,1 C 92 % 1015,0 hPa 0,0 l/m 6,1 km/h (2 Bft) O-NO -1,3 C -1,7 C
24.02.2013 06:00 -0,1 C 92 % 1014,7 hPa 0,0 l/m 6,2 km/h (2 Bft) O-NO -1,2 C -1,8 C
24.02.2013 07:00 -0,0 C 93 % 1014,7 hPa 0,0 l/m 5,8 km/h (2 Bft) NO -1,1 C -1,7 C
24.02.2013 08:00 0,3 C 93 % 1015,2 hPa 0,0 l/m 5,6 km/h (1 Bft) O-NO -0,7 C -1,3 C
24.02.2013 09:00 0,6 C 93 % 1015,5 hPa 0,0 l/m 6,8 km/h (2 Bft) O-NO -0,4 C -1,4 C
24.02.2013 10:00 1,0 C 92 % 1015,5 hPa 0,0 l/m 7,6 km/h (2 Bft) O-NO -0,1 C -1,0 C
24.02.2013 11:00 1,2 C 92 % 1015,7 hPa 0,0 l/m 5,9 km/h (2 Bft) NO 0,0 C -0,4 C
24.02.2013 12:00 1,3 C 91 % 1015,6 hPa 0,0 l/m 5,4 km/h (1 Bft) NO -0,0 C 0,2 C
24.02.2013 13:00 1,3 C 91 % 1015,3 hPa 0,0 l/m 5,8 km/h (2 Bft) NO 0,0 C -0,1 C
24.02.2013 14:00 1,1 C 92 % 1015,4 hPa 0,0 l/m 6,5 km/h (2 Bft) NO -0,1 C -0,6 C
24.02.2013 15:00 1,1 C 92 % 1015,6 hPa 0,0 l/m 5,8 km/h (2 Bft) O-NO -0,0 C -0,3 C
24.02.2013 16:00 1,2 C 92 % 1015,8 hPa 0,0 l/m 5,2 km/h (1 Bft) NO 0,0 C -0,1 C
24.02.2013 17:00 1,1 C 93 % 1016,3 hPa 0,0 l/m 6,0 km/h (2 Bft) O-NO 0,1 C -0,4 C
24.02.2013 18:00 1,1 C 93 % 1017,2 hPa 0,0 l/m 2,8 km/h (1 Bft) O-NO 0,1 C 0,5 C
24.02.2013 19:00 1,1 C 93 % 1017,8 hPa 0,0 l/m 4,9 km/h (1 Bft) O-NO 0,1 C -0,1 C
24.02.2013 20:00 1,1 C 93 % 1018,1 hPa 0,0 l/m 4,5 km/h (1 Bft) O-NO 0,2 C -0,0 C
24.02.2013 21:00 1,1 C 94 % 1018,8 hPa 0,0 l/m 4,8 km/h (1 Bft) NO 0,2 C 0,1 C
24.02.2013 22:00 1,2 C 94 % 1019,2 hPa 0,0 l/m 5,4 km/h (1 Bft) O-NO 0,3 C -0,2 C
24.02.2013 23:00 1,3 C 95 % 1019,7 hPa 0,0 l/m 4,3 km/h (1 Bft) NO 0,5 C 0,4 C
Min-Datum _ 22.02.13 22.02.13 19.02.13 - 18.02.13 - 22.02.13 23.02.13
_ Min-Zeit 23:36 13:56 07:16 - 00:06 - 20:51 02:51
Minimum _ -4,6 C 66 % 1011,2 hPa - 0,0 km/h (0 Bft) - -7,5 C -10,6 C
Max-Datum _ 18.02.13 24.02.13 20.02.13 19.02.13 20.02.13 - 24.02.13 18.02.13
_ Max-Zeit 14:16 23:16 22:21 12:01 15:36 - 23:16 14:16
Maximum _ 2,2 C 95 % 1025,8 hPa 3,1 l/m 27,0 km/h
N (4 Bft)
- 0,6 C 2,2 C
Durchschnitt _ -0,7 C 85 % 1020,0 hPa #10,4 l/m 7,2 km/h (2 Bft) O-NO -2,9 C -2,8 C
(c) by David Heller